Regional Weather Roundup
Issued by NWS Mobile, AL

Current Version | Previous Version | Text Only | Print | Product List | Glossary On
Versions: 1 2 3 4 5 6 7 8 9 10 11 12 13 14 15 16 17 18 19 20 21 22 23 24 25 26 27 28 29 30 31 32 33 34 35 36 37 38 39 40 41 42 43 44 45 46 47 48 49 50
000
ASUS44 KMOB 292317
RWRMOB
REGIONAL WEATHER ROUNDUP
NATIONAL WEATHER SERVICE MOBILE AL
600 PM CDT FRI MAY 29 2015

ALZ061>064-300000-
COASTAL ALABAMA


CITY           SKY/WX    TMP DP  RH WIND       PRES   REMARKS
MOBILE REG APT MOSUNNY   83  66  56 SE12      30.07R
BROOKLEY FIELD SUNNY     82  71  69 S10G17    30.07S
GULF SHORES    PTCLDY    81  72  73 SE10      30.06S

$$

ALZ051>060-300000-
INTERIOR SOUTHWEST AND SOUTH CENTRAL ALABAMA


CITY           SKY/WX    TMP DP  RH WIND       PRES   REMARKS
ANDALUSIA/OPP  SUNNY     89  58  34 SE7       30.06F
EVERGREEN      MOSUNNY   86  65  49 SE9       30.06S
FLORALA        CLEAR     84  59  42 SE7       30.08F
GREENVILLE     FAIR      85  62  46 SE8       30.06F

$$

FLZ001>006-300000-
WESTERN FLORIDA PANHANDLE


CITY           SKY/WX    TMP DP  RH WIND       PRES   REMARKS
CRESTVIEW      MOSUNNY   81  69  67 S6        30.08S
DESTIN         MOSUNNY   83  70  64 S8        30.07S
DUKE FIELD     MOSUNNY   78  69  73 S3        30.06F
MARY ESTHER    MOSUNNY   83  69  62 S10       30.06S
MILTON         MOCLDY    80  68  66 S6        30.06F
PENSACOLA      SUNNY     81  70  69 S12       30.06F
NAS PENSACOLA  MOSUNNY   83  70  64 S12       30.05F
VALPARAISO     PTSUNNY   82  70  67 S12       30.07S

$$

...MARINE OBSERVATIONS...

STATION/POSITION TIME  SKY/WX   TEMP    WIND        PRES    VSBY
                                AIR SEA DIR/SP/G
                 (UTC)          (F)     (DEG/KT/KT) (MB)    (MI)
PASCAGOULA       2200            81     150/ 12/ 15 1017.8F
PETIT BOIS ISL   2200            82     140/ 11/ 13 1018.4F
E DAUPHIN ISLAND 2300            80     140/ 13/ 15 1017.5F
MIDDLE BAY LIGHT 2200            80     160/ 15     1018.0S
USCG MOBILE BAY  2200            82 81  180/  7/ 16 1016.8F
STATE DOCKS      2200            83 79              1017.5F
MEAHER PARK      2300            81     180/ 15     1016.9R
FORT MORGAN      2200            81     160/ 13/ 16 1017.6F
12 S ORANGE BCH  2250            80 80  140/ 12/ 14 1017.0F
WVE H/P(F/S)=  3/ 5

PENSACOLA BAY    2200            85 83  150/  4/ 10 1018.6F
64 S DAUPHIN ISL 2250            80 81  120/ 12/ 14 1017.9F
WVE H/P(F/S)=  3/ 7

115 SE PENSACOLA 2250            79 81  100/ 12/ 16 1018.2F
WVE H/P(F/S)=  4/ 6

MID GULF/42001   2250            81 82  100/  8/ 10 1016.5F
WVE H/P(F/S)=  3/ 8

EAST GULF/42003  2250            80 82   70/ 10/ 12 1016.4F
WVE H/P(F/S)=  3/ 6


$$

...NEARBY LOCATIONS

CITY           SKY/WX    TMP DP  RH WIND       PRES   REMARKS
GULFPORT       MOSUNNY   83  71  67 SE16      30.04F
BILOXI         MOSUNNY   83  70  64 SE10      30.05S
PASCAGOULA     SUNNY     82  70  66 SE8       30.06S
HATTIESBURG    CLOUDY    79  71  76 SE5       30.06F
LAUREL         CLOUDY    79  64  61 SE5       30.07R
MERIDIAN       CLOUDY    78  67  68 S14       30.06R
MERIDIAN NAS   MOSUNNY   85  67  54 VRB7      30.05F
MONTGOMERY     SUNNY     86  64  47 E9        30.06F
MAXWELL AFB    SUNNY     86  64  47 SE8       30.06S
TROY           SUNNY     85  61  44 SE9       30.08F
FORT RUCKER    PTSUNNY   84  61  45 CALM      30.06F
DALEVILLE      NOT AVBL
DOTHAN         SUNNY     84  61  45 SE7       30.12F

$$

...OTHER SURROUNDING LOCATIONS...

CITY           SKY/WX    TMP DP  RH WIND       PRES   REMARKS
BIRMINGHAM     PTSUNNY   75  71  87 SE5       30.11F
TUSCALOOSA     SUNNY     86  65  49 S9        30.05F
COLUMBUS GA    SUNNY     84  57  39 SE8       30.09F
PANAMA CITY    NOT AVBL
TALLAHASSEE    MOSUNNY   87  58  37 E10       30.07S
BATON ROUGE    CLOUDY    78  73  84 E7        30.01F
NEW ORLEANS    PTSUNNY   82  68  62 SE10      30.03F
SLIDELL        MOSUNNY   82  71  69 SE10      30.03S
JACKSON        MOSUNNY   83  70  64 SE15      30.01S
MCCOMB         MOSUNNY   83  71  67 SE13G20   30.02F

$$

...SURROUNDING MARINE OBSERVATIONS...

STATION/POSITION TIME  SKY/WX   TEMP    WIND        PRES    VSBY
                                AIR SEA DIR/SP/G
                 (UTC)          (F)     (DEG/KT/KT) (MB)    (MI)
WAVELAND         2200            81 84  150/ 15/ 17 1017.7F
PASCAGOULA RGN A 2200            84     140/  9/ 15 1017.6F
PASCAGOULA PORT  2200               83                N/A
GRAND ISLE       2200            83 83  150/  8/ 11 1017.4F
SOUTHWEST PASS   2300            81     120/ 10/ 11 1017.4F
PILOT STATION E  2200            86 76  130/  7/ 11 1017.9F
SHELL BEACH      2200            81 83  130/ 12/ 15 1016.8F
PANAMA CITY      2200            81 83  200/ 15/ 18 1017.8F
APALACHICOLA     2200            80 82  130/  7/  9 1018.5F
TYNDALL TOWER C  2300            78      80/  6/  6 1018.3F
S APLCHCLA/42036 2250            80 81  100/  8/ 10 1017.8F
WVE H/P(F/S)=  3/ 5


$$




USA.gov is the U.S. government's official web portal to all federal, state and local government web resources and services.